| time (UTC) | temp F | wind direction | speed knots | gust knots | rain 1hr in | rain 24hr in | rain mn in | humidity % | barometer mb |
| 20260510095045 | 64 | 5 | 1.7 | 2.6 | 0.00 | 0.00 | 0.00 | 78 | 966.4 |
| 20260510094555 | 65 | 5 | 0.0 | 4.3 | 0.00 | 0.00 | 0.00 | 78 | 966.4 |
| 20260510094043 | 65 | 9 | 2.6 | 4.3 | 0.00 | 0.00 | 0.00 | 77 | 966.3 |
| 20260510093542 | 65 | 355 | 1.7 | 2.6 | 0.00 | 0.00 | 0.00 | 79 | 966.1 |
| 20260510093045 | 65 | 163 | 0.9 | 1.7 | 0.00 | 0.00 | 0.00 | 79 | 965.9 |
| 20260510092541 | 66 | 163 | 0.0 | 1.7 | 0.00 | 0.00 | 0.00 | 77 | 966.0 |
| 20260510092044 | 67 | 163 | 0.0 | 2.6 | 0.00 | 0.00 | 0.00 | 75 | 966.2 |
| 20260510091542 | 67 | 166 | 0.0 | 1.7 | 0.00 | 0.00 | 0.00 | 75 | 966.3 |
| 20260510091039 | 67 | 166 | 0.0 | 2.6 | 0.00 | 0.00 | 0.00 | 75 | 966.3 |
| 20260510090539 | 67 | 166 | 0.9 | 4.3 | 0.00 | 0.00 | 0.00 | 74 | 966.2 |
| 20260510090041 | 67 | 178 | 1.7 | 5.2 | 0.00 | 0.00 | 0.00 | 74 | 966.2 |
| 20260510085539 | 67 | 157 | 2.6 | 5.2 | 0.00 | 0.00 | 0.00 | 74 | 966.1 |
| 20260510085038 | 67 | 148 | 1.7 | 6.1 | 0.00 | 0.00 | 0.00 | 74 | 966.1 |
| 20260510084538 | 67 | 166 | 1.7 | 6.1 | 0.00 | 0.00 | 0.00 | 73 | 966.2 |
| 20260510084038 | 67 | 149 | 1.7 | 7.0 | 0.00 | 0.00 | 0.00 | 73 | 966.0 |
| 20260510083538 | 67 | 163 | 2.6 | 8.7 | 0.00 | 0.00 | 0.00 | 73 | 966.0 |
| 20260510083051 | 67 | 157 | 4.3 | 8.7 | 0.00 | 0.00 | 0.00 | 73 | 966.1 |
| 20260510082537 | 67 | 180 | 2.6 | 6.1 | 0.00 | 0.00 | 0.00 | 73 | 966.2 |
| 20260510082037 | 67 | 163 | 2.6 | 4.3 | 0.00 | 0.00 | 0.00 | 72 | 966.0 |
| 20260510081541 | 66 | 159 | 1.7 | 4.3 | 0.00 | 0.00 | 0.00 | 72 | 966.2 |
| 20260510081036 | 66 | 163 | 0.9 | 3.5 | 0.00 | 0.00 | 0.00 | 72 | 966.1 |
| 20260510080535 | 66 | 180 | 0.9 | 2.6 | 0.00 | 0.00 | 0.00 | 71 | 966.1 |
| 20260510080035 | 66 | 178 | 0.0 | 2.6 | 0.00 | 0.00 | 0.00 | 70 | 966.1 |
| 20260510075535 | 66 | 177 | 0.9 | 2.6 | 0.00 | 0.00 | 0.00 | 70 | 966.0 |
| 20260510075035 | 66 | 178 | 0.9 | 3.5 | 0.00 | 0.00 | 0.00 | 70 | 966.0 |
| 20260510074535 | 66 | 174 | 0.9 | 4.3 | 0.00 | 0.00 | 0.00 | 69 | 965.9 |
| 20260510074035 | 66 | 192 | 0.0 | 4.3 | 0.00 | 0.00 | 0.00 | 68 | 966.0 |
| 20260510073533 | 66 | 157 | 0.0 | 0.0 | 0.00 | 0.00 | 0.00 | 67 | 966.0 |
| 20260510073040 | 66 | 156 | 0.0 | 0.0 | 0.00 | 0.00 | 0.00 | 67 | 966.0 |
| 20260510072533 | 66 | 156 | 0.0 | 0.0 | 0.00 | 0.00 | 0.00 | 67 | 965.9 |
| 20260510072032 | 67 | 156 | 0.0 | 0.0 | 0.00 | 0.00 | 0.00 | 66 | 965.9 |
| 20260510071536 | 67 | 156 | 0.0 | 0.9 | 0.00 | 0.00 | 0.00 | 66 | 966.0 |
| 20260510071031 | 67 | 156 | 0.0 | 0.9 | 0.00 | 0.00 | 0.00 | 66 | 966.0 |
| 20260510070530 | 67 | 156 | 0.0 | 1.7 | 0.00 | 0.00 | 0.00 | 65 | 965.9 |
| 20260510070029 | 67 | 156 | 0.0 | 1.7 | 0.00 | 0.00 | 0.00 | 65 | 966.0 |
| 20260510065528 | 68 | 156 | 0.0 | 1.7 | 0.00 | 0.00 | 0.00 | 64 | 966.0 |
| 20260510065028 | 68 | 157 | 0.9 | 2.6 | 0.00 | 0.00 | 0.00 | 63 | 966.0 |
| 20260510064529 | 68 | 155 | 0.0 | 2.6 | 0.00 | 0.00 | 0.00 | 63 | 966.1 |
| 20260510064026 | 68 | 155 | 0.9 | 4.3 | 0.00 | 0.00 | 0.00 | 63 | 966.1 |
| 20260510063525 | 68 | 158 | 0.9 | 4.3 | 0.00 | 0.00 | 0.00 | 62 | 966.1 |
| 20260510063025 | 69 | 154 | 1.7 | 4.3 | 0.00 | 0.00 | 0.00 | 62 | 966.2 |
| 20260510062525 | 69 | 163 | 0.9 | 4.3 | 0.00 | 0.00 | 0.00 | 61 | 966.2 |
| 20260510062025 | 69 | 166 | 1.7 | 4.3 | 0.00 | 0.00 | 0.00 | 61 | 966.2 |
| 20260510061523 | 69 | 180 | 1.7 | 4.3 | 0.00 | 0.00 | 0.00 | 60 | 966.3 |
| 20260510061024 | 69 | 167 | 2.6 | 6.1 | 0.00 | 0.00 | 0.00 | 59 | 966.1 |
| 20260510060525 | 69 | 176 | 2.6 | 7.0 | 0.00 | 0.00 | 0.00 | 59 | 966.0 |
| 20260510060035 | 69 | 143 | 2.6 | 7.8 | 0.00 | 0.00 | 0.00 | 58 | 966.1 |
| 20260510055520 | 69 | 173 | 3.5 | 7.8 | 0.00 | 0.00 | 0.00 | 56 | 966.1 |
| 20260510055020 | 69 | 163 | 4.3 | 7.8 | 0.00 | 0.00 | 0.00 | 55 | 966.2 |
| 20260510054532 | 69 | 165 | 3.5 | 7.0 | 0.00 | 0.00 | 0.00 | 54 | 966.2 |
| 20260510054021 | 69 | 167 | 2.6 | 7.8 | 0.00 | 0.00 | 0.00 | 54 | 966.2 |
| 20260510053518 | 69 | 164 | 3.5 | 7.8 | 0.00 | 0.00 | 0.00 | 54 | 966.2 |
| 20260510053018 | 69 | 156 | 4.3 | 7.0 | 0.00 | 0.00 | 0.00 | 53 | 966.3 |
| 20260510052517 | 69 | 155 | 2.6 | 6.1 | 0.00 | 0.00 | 0.00 | 54 | 966.4 |
| 20260510052017 | 69 | 154 | 1.7 | 5.2 | 0.00 | 0.00 | 0.00 | 53 | 966.3 |
| 20260510051515 | 69 | 183 | 1.7 | 5.2 | 0.00 | 0.00 | 0.00 | 52 | 966.4 |
| 20260510051016 | 69 | 173 | 1.7 | 5.2 | 0.00 | 0.00 | 0.00 | 52 | 966.3 |
| 20260510050514 | 69 | 161 | 2.6 | 5.2 | 0.00 | 0.00 | 0.00 | 52 | 966.3 |
| 20260510050014 | 69 | 166 | 2.6 | 6.1 | 0.00 | 0.00 | 0.00 | 52 | 966.2 |
| 20260510045516 | 69 | 157 | 2.6 | 5.2 | 0.00 | 0.00 | 0.00 | 52 | 966.1 |
| 20260510045013 | 69 | 182 | 2.6 | 4.3 | 0.00 | 0.00 | 0.00 | 52 | 965.9 |
| 20260510044513 | 69 | 155 | 0.9 | 2.6 | 0.00 | 0.00 | 0.00 | 52 | 965.9 |
| 20260510044012 | 68 | 169 | 0.9 | 2.6 | 0.00 | 0.00 | 0.00 | 51 | 965.9 |
| 20260510043512 | 69 | 176 | 0.9 | 2.6 | 0.00 | 0.00 | 0.00 | 50 | 965.8 |
| 20260510043013 | 69 | 178 | 1.7 | 4.3 | 0.00 | 0.00 | 0.00 | 49 | 965.9 |
| 20260510042515 | 69 | 157 | 0.9 | 5.2 | 0.00 | 0.00 | 0.00 | 48 | 965.8 |
| 20260510042011 | 69 | 167 | 1.7 | 2.6 | 0.00 | 0.00 | 0.00 | 46 | 965.8 |
| 20260510041509 | 69 | 159 | 1.7 | 5.2 | 0.00 | 0.00 | 0.00 | 46 | 965.7 |
| 20260510041009 | 69 | 167 | 1.7 | 5.2 | 0.00 | 0.00 | 0.00 | 45 | 965.7 |
| 20260510040509 | 68 | 157 | 1.7 | 5.2 | 0.00 | 0.00 | 0.00 | 46 | 965.6 |
| 20260510040007 | 68 | 148 | 1.7 | 5.2 | 0.00 | 0.00 | 0.00 | 47 | 965.5 |
| 20260510035508 | 68 | 153 | 0.9 | 2.6 | 0.00 | 0.00 | 0.00 | 48 | 965.6 |
| 20260510035009 | 68 | 129 | 1.7 | 2.6 | 0.00 | 0.00 | 0.00 | 49 | 965.5 |
| 20260510034513 | 67 | 123 | 1.7 | 2.6 | 0.00 | 0.00 | 0.00 | 50 | 965.4 |
| 20260510034007 | 68 | 128 | 0.9 | 2.6 | 0.00 | 0.00 | 0.00 | 49 | 965.4 |
| 20260510033510 | 68 | 128 | 0.9 | 2.6 | 0.00 | 0.00 | 0.00 | 50 | 965.3 |
| 20260510033007 | 67 | 132 | 0.9 | 2.6 | 0.00 | 0.00 | 0.00 | 51 | 965.2 |
| 20260510032509 | 67 | 131 | 0.9 | 2.6 | 0.00 | 0.00 | 0.00 | 51 | 965.4 |
| 20260510032006 | 68 | 132 | 0.9 | 3.5 | 0.00 | 0.00 | 0.00 | 50 | 965.3 |
| 20260510031510 | 68 | 140 | 0.9 | 3.5 | 0.00 | 0.00 | 0.00 | 49 | 965.3 |
| 20260510031006 | 68 | 136 | 0.9 | 2.6 | 0.00 | 0.00 | 0.00 | 50 | 965.2 |
| 20260510030508 | 68 | 136 | 0.9 | 2.6 | 0.00 | 0.00 | 0.00 | 49 | 965.2 |
| 20260510030010 | 68 | 130 | 0.9 | 2.6 | 0.00 | 0.00 | 0.00 | 49 | 965.1 |
| 20260510025506 | 68 | 130 | 0.9 | 2.6 | 0.00 | 0.00 | 0.00 | 50 | 965.0 |
| 20260510025003 | 68 | 130 | 0.0 | 2.6 | 0.00 | 0.00 | 0.00 | 50 | 964.9 |
| 20260510024503 | 69 | 130 | 0.9 | 2.6 | 0.00 | 0.00 | 0.00 | 50 | 964.7 |
| 20260510024003 | 69 | 131 | 0.9 | 2.6 | 0.00 | 0.00 | 0.00 | 49 | 964.6 |
| 20260510023502 | 69 | 134 | 0.9 | 4.3 | 0.00 | 0.00 | 0.00 | 49 | 964.5 |
| 20260510023002 | 69 | 139 | 0.9 | 3.5 | 0.00 | 0.00 | 0.00 | 48 | 964.5 |
| 20260510022503 | 69 | 128 | 1.7 | 3.5 | 0.00 | 0.00 | 0.00 | 48 | 964.4 |
| 20260510022002 | 69 | 138 | 0.9 | 1.7 | 0.00 | 0.00 | 0.00 | 50 | 964.3 |
| 20260510021501 | 69 | 138 | 0.9 | 2.6 | 0.00 | 0.00 | 0.00 | 50 | 964.3 |
| 20260510021001 | 69 | 138 | 0.9 | 2.6 | 0.00 | 0.00 | 0.00 | 49 | 964.0 |
| 20260510020501 | 69 | 138 | 0.9 | 2.6 | 0.00 | 0.00 | 0.00 | 49 | 964.0 |
| 20260510020101 | 69 | 138 | 0.9 | 2.6 | 0.00 | 0.00 | 0.00 | 50 | 963.8 |
| 20260510015600 | 69 | 139 | 0.9 | 1.7 | 0.00 | 0.00 | 0.00 | 50 | 963.8 |
| 20260510015100 | 69 | 139 | 0.0 | 0.9 | 0.00 | 0.00 | 0.00 | 50 | 963.8 |
| 20260510014603 | 70 | 139 | 0.0 | 1.7 | 0.00 | 0.00 | 0.00 | 50 | 963.6 |
| 20260510014100 | 70 | 139 | 0.0 | 1.7 | 0.00 | 0.00 | 0.00 | 49 | 963.6 |
| 20260510013600 | 71 | 139 | 0.0 | 1.7 | 0.00 | 0.00 | 0.00 | 48 | 963.5 |
| 20260510013105 | 70 | 139 | 0.9 | 1.7 | 0.00 | 0.00 | 0.00 | 48 | 963.6 |
| 20260510012600 | 70 | 139 | 0.9 | 1.7 | 0.00 | 0.00 | 0.00 | 48 | 963.5 |
| 20260510012059 | 71 | 140 | 0.9 | 2.6 | 0.00 | 0.00 | 0.00 | 48 | 963.5 |
| 20260510011559 | 72 | 143 | 0.9 | 2.6 | 0.00 | 0.00 | 0.00 | 46 | 963.3 |
| 20260510011058 | 73 | 147 | 0.9 | 2.6 | 0.00 | 0.00 | 0.00 | 45 | 963.3 |
| 20260510010558 | 73 | 150 | 0.9 | 2.6 | 0.00 | 0.00 | 0.00 | 44 | 963.3 |
| 20260510005559 | 74 | 153 | 0.9 | 4.3 | 0.00 | 0.00 | 0.00 | 42 | 963.2 |
| 20260510005058 | 74 | 156 | 0.9 | 2.6 | 0.00 | 0.00 | 0.00 | 43 | 963.2 |
| 20260510004600 | 75 | 163 | 0.0 | 1.7 | 0.00 | 0.00 | 0.00 | 43 | 963.1 |
| 20260510004058 | 75 | 163 | 0.9 | 1.7 | 0.00 | 0.00 | 0.00 | 43 | 963.1 |
| 20260510003558 | 75 | 163 | 0.9 | 1.7 | 0.00 | 0.00 | 0.00 | 43 | 963.0 |
| 20260510003100 | 76 | 165 | 0.0 | 2.6 | 0.00 | 0.00 | 0.00 | 43 | 963.1 |
| 20260510002558 | 76 | 165 | 0.9 | 3.5 | 0.00 | 0.00 | 0.00 | 42 | 963.0 |
| 20260510002057 | 76 | 165 | 0.9 | 2.6 | 0.00 | 0.00 | 0.00 | 42 | 963.0 |
| 20260510001558 | 77 | 164 | 0.9 | 2.6 | 0.00 | 0.00 | 0.00 | 41 | 963.1 |
| 20260510001056 | 77 | 187 | 1.7 | 4.3 | 0.00 | 0.00 | 0.00 | 40 | 963.0 |
| 20260510000556 | 77 | 137 | 0.9 | 4.3 | 0.00 | 0.00 | 0.00 | 39 | 962.9 |
| 20260510000056 | 78 | 156 | 1.7 | 2.6 | 0.00 | 0.00 | 0.00 | 39 | 962.9 |
| 20260509235556 | 78 | 165 | 0.9 | 2.6 | 0.00 | 0.00 | 0.00 | 39 | 962.9 |
| 20260509235057 | 78 | 164 | 0.9 | 4.3 | 0.00 | 0.00 | 0.00 | 38 | 962.9 |
| 20260509234556 | 78 | 162 | 1.7 | 4.3 | 0.00 | 0.00 | 0.00 | 37 | 962.9 |
| 20260509234055 | 79 | 158 | 1.7 | 4.3 | 0.00 | 0.00 | 0.00 | 36 | 962.9 |
| 20260509233554 | 79 | 175 | 2.6 | 6.1 | 0.00 | 0.00 | 0.00 | 35 | 962.9 |
| 20260509233055 | 79 | 155 | 1.7 | 6.1 | 0.00 | 0.00 | 0.00 | 36 | 963.0 |
| 20260509232555 | 79 | 152 | 0.9 | 3.5 | 0.00 | 0.00 | 0.00 | 35 | 963.1 |
| 20260509232055 | 79 | 136 | 1.7 | 5.2 | 0.00 | 0.00 | 0.00 | 33 | 963.0 |
| 20260509231556 | 80 | 195 | 2.6 | 5.2 | 0.00 | 0.00 | 0.00 | 33 | 963.1 |
| 20260509231054 | 80 | 117 | 1.7 | 5.2 | 0.00 | 0.00 | 0.00 | 33 | 963.0 |
| 20260509230554 | 80 | 139 | 1.7 | 5.2 | 0.00 | 0.00 | 0.00 | 34 | 963.0 |
| 20260509230058 | 80 | 121 | 2.6 | 5.2 | 0.00 | 0.00 | 0.00 | 33 | 962.9 |
| 20260509225553 | 80 | 125 | 0.9 | 4.3 | 0.00 | 0.00 | 0.00 | 34 | 962.8 |
| 20260509225057 | 80 | 207 | 2.6 | 5.2 | 0.00 | 0.00 | 0.00 | 33 | 962.9 |
| 20260509224559 | 80 | 174 | 2.6 | 5.2 | 0.00 | 0.00 | 0.00 | 34 | 962.8 |
| 20260509224055 | 81 | 178 | 2.6 | 4.3 | 0.00 | 0.00 | 0.00 | 35 | 962.9 |
| 20260509223554 | 81 | 285 | 0.9 | 3.5 | 0.00 | 0.00 | 0.00 | 33 | 962.8 |
| 20260509223054 | 81 | 254 | 1.7 | 3.5 | 0.00 | 0.00 | 0.00 | 33 | 962.9 |
| 20260509222554 | 81 | 240 | 1.7 | 3.5 | 0.00 | 0.00 | 0.00 | 35 | 962.8 |
| 20260509222053 | 81 | 5 | 0.9 | 3.5 | 0.00 | 0.00 | 0.00 | 33 | 962.8 |
| 20260509221553 | 81 | 355 | 1.7 | 3.5 | 0.00 | 0.00 | 0.00 | 32 | 962.8 |
| 20260509221051 | 81 | 296 | 1.7 | 3.5 | 0.00 | 0.00 | 0.00 | 32 | 962.9 |
| 20260509220553 | 81 | 12 | 1.7 | 3.5 | 0.00 | 0.00 | 0.00 | 30 | 962.9 |
| 20260509220054 | 81 | 11 | 1.7 | 3.5 | 0.00 | 0.00 | 0.00 | 31 | 962.9 |
| 20260509215553 | 81 | 11 | 1.7 | 3.5 | 0.00 | 0.00 | 0.00 | 31 | 963.0 |
| 20260509215052 | 81 | 194 | 0.0 | 3.5 | 0.00 | 0.00 | 0.00 | 31 | 963.0 |
| 20260509214558 | 81 | 188 | 0.0 | 4.3 | 0.00 | 0.00 | 0.00 | 30 | 963.0 |
| 20260509214051 | 80 | 217 | 2.6 | 6.1 | 0.00 | 0.00 | 0.00 | 31 | 963.1 |
| 20260509213555 | 80 | 234 | 1.7 | 6.1 | 0.00 | 0.00 | 0.00 | 30 | 963.1 |
| 20260509213113 | 81 | 245 | 3.5 | 6.1 | 0.00 | 0.00 | 0.00 | 30 | 963.1 |
| 20260509212552 | 82 | 254 | 1.7 | 5.2 | 0.00 | 0.00 | 0.00 | 30 | 963.1 |
| 20260509212052 | 81 | 236 | 1.7 | 5.2 | 0.00 | 0.00 | 0.00 | 29 | 963.0 |
| 20260509211553 | 81 | 212 | 1.7 | 5.2 | 0.00 | 0.00 | 0.00 | 30 | 963.0 |
| 20260509211050 | 81 | 262 | 1.7 | 4.3 | 0.00 | 0.00 | 0.00 | 31 | 963.1 |
| 20260509210550 | 82 | 261 | 1.7 | 4.3 | 0.00 | 0.00 | 0.00 | 29 | 963.2 |
| 20260509205550 | 82 | 261 | 0.9 | 3.5 | 0.00 | 0.00 | 0.00 | 30 | 963.2 |
| 20260509205049 | 82 | 255 | 1.7 | 4.3 | 0.00 | 0.00 | 0.00 | 28 | 963.3 |
| 20260509204549 | 81 | 238 | 1.7 | 4.3 | 0.00 | 0.00 | 0.00 | 29 | 963.2 |
| 20260509204049 | 81 | 54 | 1.7 | 6.1 | 0.00 | 0.00 | 0.00 | 27 | 963.2 |
| 20260509203548 | 82 | 139 | 2.6 | 6.1 | 0.00 | 0.00 | 0.00 | 28 | 963.3 |
| 20260509203048 | 81 | 138 | 0.9 | 6.1 | 0.00 | 0.00 | 0.00 | 28 | 963.4 |
| 20260509202549 | 81 | 138 | 1.7 | 6.1 | 0.00 | 0.00 | 0.00 | 28 | 963.5 |
| 20260509202049 | 81 | 99 | 0.9 | 3.5 | 0.00 | 0.00 | 0.00 | 28 | 963.6 |
| 20260509201547 | 81 | 44 | 1.7 | 4.3 | 0.00 | 0.00 | 0.00 | 29 | 963.7 |
| 20260509201047 | 82 | 22 | 1.7 | 4.3 | 0.00 | 0.00 | 0.00 | 28 | 963.8 |
| 20260509200547 | 81 | 232 | 0.9 | 5.2 | 0.00 | 0.00 | 0.00 | 28 | 963.7 |
| 20260509200047 | 81 | 252 | 1.7 | 7.0 | 0.00 | 0.00 | 0.00 | 28 | 963.7 |
| 20260509195548 | 81 | 283 | 2.6 | 7.0 | 0.00 | 0.00 | 0.00 | 32 | 963.8 |
| 20260509195050 | 81 | 318 | 1.7 | 7.0 | 0.00 | 0.00 | 0.00 | 28 | 963.8 |
| 20260509194547 | 81 | 261 | 3.5 | 6.1 | 0.00 | 0.00 | 0.00 | 30 | 963.9 |
| 20260509194046 | 82 | 266 | 2.6 | 5.2 | 0.00 | 0.00 | 0.00 | 32 | 964.0 |
| 20260509193545 | 81 | 279 | 0.9 | 7.0 | 0.00 | 0.00 | 0.00 | 32 | 964.0 |
| 20260509193046 | 81 | 299 | 1.7 | 7.0 | 0.00 | 0.00 | 0.00 | 32 | 964.1 |
| 20260509192549 | 82 | 275 | 1.7 | 3.5 | 0.00 | 0.00 | 0.00 | 31 | 964.0 |
| 20260509192044 | 81 | 290 | 0.0 | 4.3 | 0.00 | 0.00 | 0.00 | 31 | 964.1 |
| 20260509191544 | 80 | 154 | 1.7 | 5.2 | 0.00 | 0.00 | 0.00 | 31 | 964.1 |
| 20260509191043 | 80 | 268 | 2.6 | 5.2 | 0.00 | 0.00 | 0.00 | 34 | 964.2 |
| 20260509190544 | 80 | 340 | 1.7 | 7.0 | 0.00 | 0.00 | 0.00 | 31 | 964.2 |
| 20260509190045 | 81 | 269 | 3.5 | 6.1 | 0.00 | 0.00 | 0.00 | 32 | 964.2 |
| 20260509185544 | 81 | 240 | 2.6 | 7.0 | 0.00 | 0.00 | 0.00 | 30 | 964.2 |
| 20260509185044 | 81 | 247 | 1.7 | 7.0 | 0.00 | 0.00 | 0.00 | 34 | 964.2 |
| 20260509184552 | 80 | 179 | 1.7 | 6.1 | 0.00 | 0.00 | 0.00 | 31 | 964.3 |
| 20260509184042 | 81 | 248 | 0.9 | 5.2 | 0.00 | 0.00 | 0.00 | 32 | 964.2 |
| 20260509183541 | 80 | 274 | 0.9 | 5.2 | 0.00 | 0.00 | 0.00 | 32 | 964.1 |
| 20260509183041 | 80 | 326 | 1.7 | 7.8 | 0.00 | 0.00 | 0.00 | 34 | 964.2 |
| 20260509182541 | 79 | 321 | 3.5 | 7.8 | 0.00 | 0.00 | 0.00 | 35 | 964.2 |
| 20260509182040 | 79 | 303 | 3.5 | 7.0 | 0.00 | 0.00 | 0.00 | 32 | 964.2 |
| 20260509181552 | 80 | 19 | 4.3 | 7.0 | 0.00 | 0.00 | 0.00 | 33 | 964.2 |
| 20260509181039 | 80 | 39 | 3.5 | 7.0 | 0.00 | 0.00 | 0.00 | 31 | 964.2 |
| 20260509180539 | 79 | 155 | 0.0 | 7.0 | 0.00 | 0.00 | 0.00 | 34 | 964.2 |
| 20260509180046 | 79 | 136 | 2.6 | 5.2 | 0.00 | 0.00 | 0.00 | 37 | 964.3 |
| 20260509175538 | 79 | 198 | 1.7 | 5.2 | 0.00 | 0.00 | 0.00 | 38 | 964.2 |
| 20260509175038 | 79 | 225 | 1.7 | 5.2 | 0.00 | 0.00 | 0.00 | 33 | 964.2 |
| 20260509174538 | 79 | 322 | 0.9 | 4.3 | 0.00 | 0.00 | 0.00 | 32 | 964.2 |
| 20260509174036 | 79 | 260 | 2.6 | 4.3 | 0.00 | 0.00 | 0.00 | 34 | 964.3 |
| 20260509173536 | 79 | 233 | 0.9 | 7.0 | 0.00 | 0.00 | 0.00 | 32 | 964.4 |
| 20260509173040 | 79 | 263 | 4.3 | 7.0 | 0.00 | 0.00 | 0.00 | 34 | 964.4 |
| 20260509172534 | 78 | 265 | 1.7 | 5.2 | 0.00 | 0.00 | 0.00 | 36 | 964.5 |
| 20260509172033 | 78 | 16 | 0.9 | 5.2 | 0.00 | 0.00 | 0.00 | 39 | 964.5 |
| 20260509171534 | 78 | 338 | 1.7 | 5.2 | 0.00 | 0.00 | 0.00 | 37 | 964.6 |
| 20260509171031 | 78 | 251 | 0.9 | 4.3 | 0.00 | 0.00 | 0.00 | 38 | 964.5 |
| 20260509170530 | 78 | 301 | 1.7 | 4.3 | 0.00 | 0.00 | 0.00 | 42 | 964.5 |
| 20260509170037 | 77 | 218 | 1.7 | 3.5 | 0.00 | 0.00 | 0.00 | 45 | 964.6 |
| 20260509165527 | 76 | 202 | 0.9 | 7.0 | 0.00 | 0.00 | 0.00 | 44 | 964.7 |
| 20260509165026 | 77 | 219 | 1.7 | 6.1 | 0.00 | 0.00 | 0.00 | 49 | 964.8 |
| 20260509164534 | 76 | 227 | 1.7 | 7.0 | 0.00 | 0.00 | 0.00 | 45 | 964.7 |
| 20260509164027 | 76 | 274 | 3.5 | 7.0 | 0.00 | 0.00 | 0.00 | 52 | 964.8 |
| 20260509163523 | 76 | 227 | 0.9 | 5.2 | 0.00 | 0.00 | 0.00 | 55 | 964.7 |
| 20260509163021 | 75 | 225 | 1.7 | 5.2 | 0.00 | 0.00 | 0.00 | 52 | 964.7 |
| 20260509162520 | 74 | 252 | 1.7 | 6.1 | 0.00 | 0.00 | 0.00 | 54 | 964.6 |
| 20260509162025 | 75 | 278 | 1.7 | 5.2 | 0.00 | 0.00 | 0.00 | 56 | 964.7 |
| 20260509161518 | 74 | 318 | 1.7 | 5.2 | 0.00 | 0.00 | 0.00 | 53 | 964.7 |
| 20260509161017 | 74 | 317 | 0.0 | 7.0 | 0.00 | 0.00 | 0.00 | 56 | 964.6 |
| 20260509160515 | 74 | 274 | 0.9 | 7.0 | 0.00 | 0.00 | 0.00 | 59 | 964.6 |
| 20260509160015 | 74 | 292 | 1.7 | 5.2 | 0.00 | 0.00 | 0.00 | 61 | 964.6 |
| 20260509155511 | 73 | 348 | 1.7 | 5.2 | 0.00 | 0.00 | 0.00 | 61 | 964.5 |
| 20260509155014 | 73 | 246 | 1.7 | 5.2 | 0.00 | 0.00 | 0.00 | 62 | 964.5 |
| 20260509154509 | 73 | 331 | 1.7 | 4.3 | 0.00 | 0.00 | 0.00 | 60 | 964.5 |
| 20260509154108 | 73 | 210 | 2.6 | 6.1 | 0.00 | 0.00 | 0.00 | 60 | 964.6 |
| 20260509153505 | 72 | 288 | 1.7 | 6.1 | 0.00 | 0.00 | 0.00 | 62 | 964.7 |
| 20260509153006 | 71 | 254 | 1.7 | 6.1 | 0.00 | 0.00 | 0.00 | 65 | 964.7 |
| 20260509152503 | 71 | 267 | 3.5 | 6.1 | 0.00 | 0.00 | 0.00 | 63 | 964.7 |
| 20260509152003 | 70 | 240 | 2.6 | 6.1 | 0.00 | 0.00 | 0.00 | 65 | 964.7 |
| 20260509151600 | 70 | 191 | 4.3 | 6.1 | 0.00 | 0.00 | 0.00 | 65 | 964.6 |
| 20260509151058 | 69 | 202 | 3.5 | 7.0 | 0.00 | 0.00 | 0.00 | 66 | 964.5 |
| 20260509150557 | 69 | 202 | 3.5 | 7.0 | 0.00 | 0.00 | 0.00 | 68 | 964.5 |
| 20260509150055 | 69 | 285 | 1.7 | 4.3 | 0.00 | 0.00 | 0.00 | 68 | 964.5 |
| 20260509145555 | 69 | 267 | 1.7 | 7.0 | 0.00 | 0.00 | 0.00 | 70 | 964.5 |
| 20260509145052 | 68 | 242 | 2.6 | 7.0 | 0.00 | 0.00 | 0.00 | 70 | 964.4 |
| 20260509144558 | 68 | 249 | 1.7 | 4.3 | 0.00 | 0.00 | 0.00 | 71 | 964.3 |
| 20260509144053 | 68 | 263 | 1.7 | 7.8 | 0.00 | 0.00 | 0.00 | 71 | 964.3 |
| 20260509143548 | 67 | 246 | 2.6 | 7.8 | 0.00 | 0.00 | 0.00 | 71 | 964.3 |
| 20260509143050 | 67 | 264 | 2.6 | 7.8 | 0.00 | 0.00 | 0.00 | 72 | 964.3 |
| 20260509142547 | 66 | 257 | 2.6 | 7.8 | 0.00 | 0.00 | 0.00 | 72 | 964.3 |
| 20260509142044 | 66 | 257 | 3.5 | 7.8 | 0.00 | 0.00 | 0.00 | 73 | 964.3 |
| 20260509141542 | 66 | 263 | 3.5 | 7.8 | 0.00 | 0.00 | 0.00 | 73 | 964.3 |
| 20260509141041 | 66 | 252 | 4.3 | 7.8 | 0.00 | 0.00 | 0.00 | 73 | 964.3 |
| 20260509140539 | 65 | 255 | 4.3 | 7.0 | 0.00 | 0.00 | 0.00 | 74 | 964.2 |
| 20260509140046 | 65 | 270 | 2.6 | 7.0 | 0.00 | 0.00 | 0.00 | 75 | 964.1 |
| 20260509135536 | 65 | 228 | 3.5 | 7.8 | 0.00 | 0.00 | 0.00 | 75 | 964.1 |
| 20260509135036 | 64 | 234 | 3.5 | 7.8 | 0.00 | 0.00 | 0.00 | 75 | 964.0 |
| 20260509134539 | 64 | 236 | 3.5 | 7.0 | 0.00 | 0.00 | 0.00 | 75 | 964.0 |
| 20260509134032 | 64 | 250 | 2.6 | 7.8 | 0.00 | 0.00 | 0.00 | 76 | 964.0 |
| 20260509133531 | 63 | 267 | 4.3 | 8.7 | 0.00 | 0.00 | 0.00 | 76 | 964.0 |
| 20260509133031 | 63 | 263 | 3.5 | 8.7 | 0.00 | 0.00 | 0.00 | 77 | 964.0 |
| 20260509132530 | 63 | 286 | 3.5 | 8.7 | 0.00 | 0.00 | 0.00 | 77 | 964.0 |
| 20260509132030 | 63 | 263 | 1.7 | 6.1 | 0.00 | 0.00 | 0.00 | 78 | 964.0 |
| 20260509131533 | 62 | 229 | 2.6 | 5.2 | 0.00 | 0.00 | 0.00 | 78 | 963.9 |
| 20260509131025 | 62 | 265 | 1.7 | 7.0 | 0.00 | 0.00 | 0.00 | 79 | 963.9 |
| 20260509130526 | 62 | 236 | 2.6 | 7.0 | 0.00 | 0.00 | 0.00 | 79 | 963.9 |
| 20260509130022 | 61 | 248 | 2.6 | 6.1 | 0.00 | 0.00 | 0.00 | 80 | 963.7 |
| 20260509125524 | 60 | 267 | 1.7 | 5.2 | 0.00 | 0.00 | 0.00 | 80 | 963.8 |
| 20260509125023 | 60 | 242 | 1.7 | 5.2 | 0.00 | 0.00 | 0.00 | 81 | 963.7 |
| 20260509124518 | 59 | 269 | 2.6 | 4.3 | 0.00 | 0.00 | 0.00 | 81 | 963.7 |
| 20260509124018 | 59 | 273 | 2.6 | 4.3 | 0.00 | 0.00 | 0.00 | 82 | 963.6 |
| 20260509123515 | 58 | 271 | 1.7 | 5.2 | 0.00 | 0.00 | 0.00 | 82 | 963.6 |
| 20260509123018 | 58 | 272 | 2.6 | 5.2 | 0.00 | 0.00 | 0.00 | 83 | 963.6 |
| 20260509122512 | 57 | 261 | 2.6 | 6.1 | 0.00 | 0.00 | 0.00 | 84 | 963.6 |
| 20260509122010 | 57 | 281 | 1.7 | 6.1 | 0.00 | 0.00 | 0.00 | 85 | 963.5 |
| 20260509121613 | 56 | 275 | 1.7 | 6.1 | 0.00 | 0.00 | 0.00 | 85 | 963.5 |
| 20260509121007 | 56 | 277 | 1.7 | 6.1 | 0.00 | 0.00 | 0.00 | 85 | 963.4 |
| 20260509120506 | 55 | 262 | 2.6 | 6.1 | 0.00 | 0.00 | 0.00 | 86 | 963.3 |
| 20260509120005 | 55 | 260 | 0.9 | 5.2 | 0.00 | 0.00 | 0.00 | 85 | 963.2 |
| 20260509115504 | 55 | 265 | 1.7 | 5.2 | 0.00 | 0.00 | 0.00 | 85 | 963.2 |
| 20260509115004 | 55 | 241 | 1.7 | 4.3 | 0.00 | 0.00 | 0.00 | 85 | 963.1 |
| 20260509114504 | 55 | 249 | 1.7 | 2.6 | 0.00 | 0.00 | 0.00 | 86 | 963.0 |
| 20260509114005 | 55 | 242 | 1.7 | 3.5 | 0.00 | 0.00 | 0.00 | 86 | 963.1 |
| 20260509113502 | 55 | 235 | 1.7 | 4.3 | 0.00 | 0.00 | 0.00 | 86 | 963.0 |
| 20260509113002 | 54 | 262 | 0.9 | 3.5 | 0.00 | 0.00 | 0.00 | 87 | 962.9 |
| 20260509112503 | 54 | 270 | 1.7 | 3.5 | 0.00 | 0.00 | 0.00 | 86 | 962.7 |
| 20260509112100 | 54 | 269 | 0.9 | 3.5 | 0.00 | 0.00 | 0.00 | 86 | 962.6 |
| 20260509111600 | 54 | 273 | 0.9 | 5.2 | 0.00 | 0.00 | 0.00 | 86 | 962.5 |
| 20260509111058 | 54 | 267 | 1.7 | 3.5 | 0.00 | 0.00 | 0.00 | 86 | 962.6 |
| 20260509110558 | 54 | 260 | 0.9 | 2.6 | 0.00 | 0.00 | 0.00 | 86 | 962.5 |
| 20260509110502 | 54 | 259 | 0.9 | 2.6 | 0.00 | 0.00 | 0.00 | 86 | 962.4 |
| 20260509105558 | 54 | 255 | 0.0 | 2.6 | 0.00 | 0.00 | 0.00 | 85 | 962.4 |
| 20260509105057 | 54 | 254 | 0.0 | 2.6 | 0.00 | 0.00 | 0.00 | 84 | 962.4 |
| 20260509104556 | 55 | 254 | 0.9 | 3.5 | 0.00 | 0.00 | 0.00 | 83 | 962.4 |
| 20260509104056 | 55 | 251 | 1.7 | 3.5 | 0.00 | 0.00 | 0.00 | 83 | 962.4 |
| 20260509103554 | 56 | 265 | 1.7 | 3.5 | 0.00 | 0.00 | 0.00 | 83 | 962.3 |
| 20260509103101 | 56 | 266 | 1.7 | 3.5 | 0.00 | 0.00 | 0.00 | 83 | 962.4 |
| 20260509102553 | 56 | 268 | 1.7 | 3.5 | 0.00 | 0.00 | 0.00 | 83 | 962.3 |
| 20260509102053 | 56 | 261 | 1.7 | 4.3 | 0.00 | 0.00 | 0.00 | 82 | 962.5 |
| 20260509101559 | 56 | 265 | 1.7 | 4.3 | 0.00 | 0.00 | 0.00 | 82 | 962.6 |
| 20260509101051 | 56 | 248 | 0.9 | 3.5 | 0.00 | 0.00 | 0.00 | 81 | 962.6 |
| 20260509100551 | 57 | 243 | 1.7 | 4.3 | 0.00 | 0.00 | 0.00 | 81 | 962.5 |
| 20260509100052 | 57 | 256 | 1.7 | 7.0 | 0.00 | 0.00 | 0.00 | 81 | 962.6 |
| 20260509095550 | 57 | 261 | 3.5 | 7.0 | 0.00 | 0.00 | 0.00 | 82 | 962.6 |